GFSNGP_250_spd_222.txt.gz
Wind_Speed
129 130 142 154 155 155 157 155 158 153 151 132 129 118 113 113 111 109 105 102 100 101 100 98 98 97 94 92 90 89 86 84 81 80 80 78 77 77 77 76 75 74 74 73
124 129 133 138 150 155 154 155 155 153 153 141 133 133 124 117 118 115 110 109 107 106 105 103 102 102 102 98 97 96 93 91 88 87 87 85 84 85 81 80 79 78 77 77
115 124 128 132 135 146 154 155 157 158 154 148 142 141 137 130 123 120 121 117 115 113 110 109 107 107 105 104 103 101 100 100 97 95 92 91 91 90 85 83 83 83 84 87
104 117 122 118 129 135 140 146 159 158 155 152 147 145 143 140 135 127 122 119 120 124 116 114 113 112 111 109 108 105 103 101 100 98 96 92 92 91 89 88 89 89 91 92
103 110 113 119 121 124 134 133 142 154 154 153 148 142 135 136 140 136 130 123 119 122 119 117 117 115 114 113 112 111 108 106 105 102 99 97 94 92 93 94 96 99 102 105
97 103 106 102 115 122 129 132 136 140 142 147 145 135 136 141 141 137 139 132 125 124 123 118 116 119 117 116 114 113 112 111 109 105 103 100 98 96 97 101 106 110 109 107
91 99 97 91 103 115 129 120 126 134 135 136 136 135 140 144 139 136 134 135 135 131 131 127 123 123 120 119 114 113 115 113 111 110 109 105 103 104 105 109 111 110 112 114
86 93 94 80 99 112 112 114 119 130 132 134 134 131 135 138 136 138 136 135 135 134 134 130 130 129 127 121 116 118 115 114 114 114 110 107 109 111 115 117 119 119 119 119
86 85 81 80 95 102 106 106 109 123 127 131 131 129 131 129 133 133 133 135 134 134 132 133 136 136 132 127 124 122 121 119 119 118 116 115 118 121 122 124 123 120 117 113
83 73 73 71 88 96 100 100 99 114 118 122 125 125 128 127 125 126 131 132 132 135 134 132 133 135 134 135 132 129 127 126 124 123 120 117 119 121 121 120 121 121 120 120
62 58 72 69 76 90 93 93 91 101 105 110 113 115 121 125 123 121 123 127 131 130 130 131 134 136 138 135 135 134 132 132 127 126 127 125 125 126 128 130 130 131 132 132
50 63 67 64 67 82 86 87 89 93 96 104 109 105 104 111 118 118 119 119 121 125 127 127 129 132 133 133 133 134 135 135 134 133 132 133 134 134 135 134 135 134 133 134
54 61 58 56 64 73 80 83 83 83 88 93 95 96 94 100 106 108 111 109 113 118 123 125 125 124 127 128 129 130 131 131 132 133 132 132 135 136 135 138 135 135 134 136
48 50 47 52 57 64 71 70 71 70 72 77 79 83 79 80 86 95 98 103 104 104 112 114 116 123 126 124 124 126 126 126 127 130 131 132 131 131 132 137 137 134 133 132
41 41 43 47 47 56 61 60 58 56 60 67 74 75 74 71 74 80 84 90 95 92 94 94 104 112 117 118 122 122 123 123 124 126 126 126 127 130 131 132 130 125 128 130
37 37 39 39 43 49 49 51 51 50 52 56 60 64 68 69 70 64 63 74 84 90 90 88 90 91 96 103 109 113 118 122 124 125 126 127 129 128 127 126 126 125 126 126
35 35 33 34 39 42 39 40 42 44 43 46 52 56 61 66 65 60 64 69 69 73 80 82 78 84 87 89 91 98 105 110 112 114 119 118 119 123 117 120 120 120 122 123
30 30 32 31 30 32 32 35 37 37 39 42 46 51 56 54 53 57 58 55 55 59 61 66 74 78 82 82 86 92 95 99 107 107 109 113 110 113 113 110 109 108 106 105
25 27 27 27 29 31 30 33 32 33 34 39 41 40 43 44 43 46 44 42 46 46 47 53 57 66 73 79 85 88 87 87 91 91 97 99 96 95 95 96 93 90 90 98
27 29 31 32 34 36 36 33 34 32 33 35 38 37 26 28 31 37 45 40 33 41 35 41 59 62 72 77 75 76 78 80 84 87 86 85 85 87 85 84 83 85 94 95
30 30 31 35 35 39 38 40 39 39 38 32 28 26 21 28 33 36 39 50 61 58 58 63 70 75 75 74 77 75 74 72 72 77 81 85 82 83 83 80 82 86 83 85
33 29 30 39 37 41 44 47 44 43 44 45 44 37 31 29 32 46 56 57 59 64 71 76 79 75 75 71 69 73 78 77 75 77 81 85 89 88 85 83 84 84 87 90
31 32 33 39 39 36 47 49 52 49 54 52 54 52 53 55 50 52 60 60 59 61 68 72 72 70 67 65 66 72 73 76 79 81 85 88 92 87 85 86 89 91 94 95
31 33 36 39 41 38 41 52 55 58 61 59 57 57 58 63 63 62 60 60 66 70 72 72 70 69 72 76 82 82 83 82 87 87 89 90 89 91 95 96 96 97 94 94
31 31 33 37 41 44 39 49 46 47 57 68 63 66 67 67 72 72 73 69 70 74 77 77 80 80 81 81 84 88 89 88 86 86 91 93 96 98 96 97 96 93 93 90
33 34 33 36 37 43 44 50 51 48 46 60 73 70 72 72 73 77 78 80 80 81 84 85 85 87 90 90 91 89 89 92 95 97 98 100 100 98 95 97 90 83 82 82
34 35 35 36 36 38 41 47 55 58 55 53 51 60 76 78 78 79 80 80 80 81 82 82 83 86 88 90 93 96 97 98 97 98 99 94 91 89 85 83 83 78 76 73

GFSNGP_250_spd_228.txt.gz
Wind_Speed
103 114 125 128 131 135 137 136 141 141 145 133 131 133 135 135 128 125 124 121 119 117 117 115 115 114 110 103 98 94 94 95 93 93 91 88 85 83 80 77 75 74 73 73
89 101 114 124 130 133 135 132 136 136 139 136 131 133 131 130 133 136 136 129 124 120 118 116 117 116 114 111 107 103 102 102 101 99 98 93 88 86 84 83 80 79 80 79
82 94 101 111 116 125 129 130 132 132 132 131 128 127 129 132 133 130 131 136 137 129 124 121 120 118 116 114 112 110 104 103 104 103 103 100 96 92 92 88 87 88 87 86
68 87 95 96 110 116 124 127 128 130 132 131 129 125 129 129 128 132 134 133 134 139 139 132 128 125 119 118 116 114 111 110 110 108 106 104 102 99 96 92 92 92 90 90
60 74 78 87 95 108 116 119 127 126 126 128 130 127 126 124 132 129 130 133 136 139 138 140 138 134 130 122 120 117 115 114 113 111 110 109 109 107 102 100 99 100 99 97
55 63 69 65 84 100 106 106 114 120 124 128 128 125 123 131 123 121 125 127 133 137 137 137 137 137 135 126 121 118 120 117 118 119 117 116 113 110 107 106 105 104 103 100
50 53 56 63 76 87 93 91 107 115 113 115 118 120 120 121 119 121 123 125 129 132 135 138 139 139 137 134 131 127 122 120 118 120 121 121 120 115 113 112 110 109 106 104
43 44 42 58 73 79 81 82 95 106 107 109 112 113 114 116 117 117 116 116 121 125 125 135 139 139 137 135 136 135 134 131 125 120 121 122 121 119 116 113 112 112 111 108
41 38 40 52 66 73 72 73 86 93 100 105 105 106 110 109 113 116 115 115 114 115 118 121 132 137 135 136 136 138 137 136 136 133 128 124 120 118 117 114 114 114 114 112
33 43 42 54 56 61 68 69 75 83 87 95 97 100 102 103 104 109 112 113 109 109 111 115 118 123 131 137 138 135 135 139 140 139 136 135 132 129 126 121 120 119 118 117
37 42 38 49 53 54 59 64 69 77 78 80 85 88 94 97 97 100 100 100 104 104 104 107 116 116 120 127 135 139 140 140 139 139 139 140 137 134 130 128 127 124 123 122
38 38 38 49 53 51 50 54 62 67 67 70 74 73 80 82 86 89 95 93 92 91 97 104 112 112 116 120 123 130 135 138 140 141 141 141 141 138 135 131 130 128 125 125
38 36 42 47 53 50 46 47 51 56 57 62 66 63 68 69 70 75 83 86 85 89 96 96 97 103 110 114 117 122 124 125 130 135 138 138 140 140 138 135 134 133 132 129
38 39 41 45 48 42 39 41 46 50 53 53 56 57 57 59 62 66 70 79 83 83 86 91 93 94 101 105 109 113 116 117 119 122 124 129 134 138 139 137 135 134 132 131
36 38 39 41 40 39 36 36 40 44 46 47 48 50 51 53 53 59 64 72 77 77 80 86 88 89 96 97 102 104 107 109 112 116 120 122 127 129 132 134 134 134 133 132
35 35 34 36 36 34 35 33 35 38 41 42 44 43 45 46 48 51 56 62 66 69 74 76 80 87 90 90 93 95 100 103 108 110 113 117 118 117 118 123 126 127 128 128
33 31 28 30 33 32 31 29 29 33 35 36 35 35 38 43 45 48 50 52 56 61 66 69 75 79 81 85 86 88 91 96 101 102 105 109 113 112 111 113 115 116 119 121
32 31 27 27 30 31 28 24 25 28 29 28 29 29 32 35 40 41 42 44 48 51 57 63 68 72 76 81 82 85 86 88 91 94 97 100 103 105 105 105 108 111 114 115
31 29 27 28 27 26 26 24 24 23 23 25 25 28 31 32 29 28 33 38 41 47 53 58 62 66 69 70 72 74 79 81 83 86 87 88 90 91 95 97 93 92 97 101
30 29 26 26 26 24 26 26 24 23 22 23 26 29 32 32 22 21 23 27 37 43 44 46 50 53 53 53 55 62 68 71 76 81 78 79 81 83 81 82 82 64 85 92
30 30 27 26 26 26 28 26 24 27 26 26 28 31 29 29 21 15 19 22 26 32 34 38 43 46 48 47 53 58 58 63 65 65 62 53 64 70 76 80 82 86 82 75
30 29 29 26 27 26 28 26 26 32 29 31 30 27 25 25 23 12 11 15 17 24 27 32 37 41 45 51 53 55 57 57 52 42 45 59 58 62 64 64 73 65 64 75
29 28 29 29 27 27 27 30 26 32 32 36 35 31 31 30 25 14 11 11 13 15 21 26 31 38 40 47 51 57 61 66 63 57 66 58 53 53 55 61 66 64 72 86
31 29 29 30 29 29 28 30 28 33 27 37 37 36 33 29 28 20 14 16 17 20 24 27 32 38 45 49 51 55 53 56 58 52 51 55 54 55 69 77 77 77 83 82
31 30 31 30 30 29 29 30 35 37 34 33 40 39 37 34 31 28 24 25 29 33 36 36 39 42 45 50 56 56 54 60 61 61 60 63 69 72 73 79 86 91 91 92
32 30 31 32 32 32 31 31 32 36 37 39 36 41 41 39 39 36 36 34 35 41 44 43 47 49 56 59 60 60 62 63 73 72 71 71 78 80 78 83 85 84 89 91
32 30 31 33 33 34 34 32 34 35 40 41 41 45 41 44 44 41 45 47 48 48 50 48 46 49 56 63 65 67 70 71 76 78 79 80 82 82 81 82 83 82 85 85

GFSNGP_250_spd_231.txt.gz
Wind_Speed
65 79 91 99 108 118 127 133 135 134 137 136 134 134 133 135 141 139 139 130 115 111 115 115 110 106 106 106 106 100 94 89 89 90 91 88 88 89 87 83 84 84 82 79
59 68 81 89 96 106 116 124 133 135 137 134 132 133 134 133 135 139 143 142 140 133 121 115 120 123 116 107 110 110 107 107 105 105 105 102 100 99 97 94 88 85 85 86
48 64 71 74 82 95 102 112 122 128 134 135 132 131 133 135 135 135 139 143 145 142 144 140 129 121 118 116 116 114 113 113 115 111 108 107 106 104 102 101 101 98 95 93
44 56 59 64 77 81 89 100 110 119 128 134 132 129 135 132 135 139 142 140 142 144 145 148 147 139 135 130 124 121 118 117 117 114 113 111 110 108 105 104 104 101 98 95
40 50 48 53 69 80 87 94 102 105 110 120 127 132 135 136 134 136 141 140 139 137 139 144 145 141 140 139 138 133 127 123 121 120 118 117 115 114 112 111 110 106 103 100
37 37 41 56 65 76 81 80 89 98 101 104 110 117 124 133 132 132 135 129 130 136 139 139 139 141 142 141 141 138 137 131 127 122 121 119 119 121 121 121 118 116 112 108
31 31 38 52 58 65 74 76 83 91 94 99 102 104 107 115 129 130 129 130 133 135 136 136 140 140 139 138 138 142 142 142 139 133 125 121 118 117 116 115 120 122 119 115
27 28 39 47 55 61 63 64 75 81 88 92 94 96 102 105 112 123 124 127 127 132 134 134 137 137 136 137 139 140 139 137 138 138 136 133 130 123 118 115 116 117 119 118
33 37 39 47 49 51 58 60 69 72 82 85 88 91 96 99 103 106 113 119 121 126 127 131 134 134 132 133 136 134 134 135 136 136 137 136 133 133 131 126 121 117 116 113
42 43 37 40 47 51 54 60 67 71 73 78 80 87 88 89 92 99 102 106 110 116 117 123 128 129 130 132 133 132 131 133 133 134 134 134 134 135 135 134 131 126 122 117
44 43 41 46 46 46 45 51 56 67 69 71 74 77 79 82 85 90 93 97 100 103 103 107 115 115 122 128 132 133 130 129 132 132 129 131 133 132 135 137 136 132 130 128
43 40 43 45 44 43 42 48 52 56 64 64 63 66 71 71 75 82 87 87 91 93 95 97 106 104 107 113 120 125 125 127 129 129 131 131 131 130 134 138 139 136 133 130
43 42 44 43 42 39 40 45 48 50 53 55 57 55 62 63 68 69 75 81 86 83 84 86 89 93 100 105 108 111 114 119 122 124 126 128 128 127 128 134 138 139 138 133
43 42 43 40 40 38 37 38 41 43 46 49 50 51 53 55 60 62 66 71 77 77 77 79 81 86 92 96 99 101 106 110 113 118 121 121 122 122 120 122 130 136 137 136
44 41 41 38 37 35 34 35 37 39 40 40 41 45 47 49 51 56 58 60 64 68 73 76 73 77 88 89 92 92 93 99 104 110 116 117 117 116 115 115 117 122 127 132
44 40 40 36 32 33 35 31 30 32 33 32 33 37 39 42 45 48 50 53 56 62 66 68 69 75 77 77 82 85 85 90 93 98 105 111 113 114 114 114 115 115 115 116
43 39 39 37 31 29 30 26 27 29 30 31 31 32 36 39 42 44 46 47 49 52 56 60 66 71 71 69 71 76 83 82 87 91 94 98 103 107 109 111 112 111 109 110
43 37 37 37 34 28 27 25 26 27 28 28 27 28 31 35 39 41 42 40 42 46 49 53 60 65 68 68 70 74 76 76 82 84 88 90 92 96 100 103 105 105 105 105
42 37 36 35 35 30 28 25 22 23 24 24 24 24 28 32 36 36 30 35 39 43 45 48 51 56 62 65 67 68 67 70 74 77 81 84 87 89 93 94 97 98 97 97
40 37 34 33 34 30 29 28 20 18 21 21 22 25 27 28 30 27 23 23 29 35 42 46 49 53 56 57 58 60 60 62 65 68 71 75 78 82 85 86 88 88 90 90
40 37 34 32 33 30 27 29 24 20 21 22 23 27 26 27 29 24 20 21 27 30 34 39 43 44 46 48 52 54 54 57 59 63 66 70 71 73 75 76 78 80 79 77
40 38 36 31 31 31 27 27 26 24 24 20 25 30 29 27 28 25 20 21 20 22 24 28 32 35 36 40 44 48 50 50 54 59 62 66 66 69 67 70 68 70 69 65
40 39 37 33 30 31 28 26 26 27 27 25 29 32 29 29 28 26 22 19 18 19 18 18 22 27 29 31 35 40 44 47 53 58 58 62 66 66 60 54 60 56 56 61
40 40 38 35 31 31 30 29 26 28 29 29 29 35 32 31 30 26 24 23 19 19 16 14 17 21 25 28 30 33 39 45 49 51 51 54 53 55 51 49 53 59 60 62
38 38 38 37 33 31 31 30 29 28 30 33 31 35 37 33 34 33 26 24 21 18 15 13 15 18 22 27 32 36 40 44 46 47 48 51 56 61 58 56 55 63 72 73
39 38 38 38 36 33 32 31 30 30 29 32 36 36 37 39 32 35 31 30 27 24 20 19 20 23 26 30 34 38 43 45 50 53 54 57 59 60 63 66 68 76 79 80
41 38 38 39 39 35 33 33 32 31 32 32 37 39 41 41 40 35 36 36 37 33 31 29 28 30 34 39 45 46 48 52 56 57 60 60 62 66 69 69 69 71 76 77

GFSNGP_250_spd_234.txt.gz
Wind_Speed
31 44 54 61 69 83 91 96 107 114 121 125 130 130 131 134 133 134 140 140 136 130 118 115 118 116 119 114 106 102 99 99 100 98 92 89 94 97 95 93 89 89 86 84
31 33 45 50 60 72 85 93 101 105 112 118 124 126 127 131 133 130 133 142 144 145 142 133 127 119 115 118 114 109 103 102 105 104 101 99 96 93 96 98 94 95 94 91
34 27 33 47 62 67 76 87 96 101 104 111 118 123 129 132 137 136 138 138 139 147 149 147 142 131 115 112 115 117 112 113 113 110 106 105 101 98 95 94 94 92 91 91
31 29 35 43 53 60 65 73 85 93 100 108 113 113 121 130 140 142 139 142 142 142 146 148 148 145 142 131 117 117 122 125 121 118 115 111 108 101 101 100 103 103 101 101
33 27 31 45 46 53 58 58 74 85 89 97 100 105 111 122 127 134 136 139 133 137 140 139 143 144 148 149 140 129 123 121 120 118 119 121 117 115 108 104 106 109 107 104
35 29 33 39 44 48 50 54 65 70 78 85 90 96 103 112 118 123 130 138 136 137 135 134 133 137 142 145 148 146 143 139 129 123 119 119 120 121 122 122 122 121 117 108
44 35 31 36 42 48 48 52 56 62 68 75 79 87 91 102 112 116 121 126 130 136 139 139 139 144 146 143 143 145 149 148 147 145 142 133 126 121 116 115 113 113 113 114
51 49 43 37 35 41 50 51 52 58 64 68 72 78 83 88 96 106 110 114 121 129 133 135 137 139 141 141 140 145 145 144 146 146 146 146 145 143 141 135 132 129 123 116
56 52 49 50 39 37 39 48 55 54 59 60 65 71 77 79 89 96 101 107 107 112 120 127 130 135 141 136 137 143 142 140 141 142 142 144 145 144 142 141 137 134 133 130
57 56 52 55 49 41 38 38 45 54 59 60 60 62 67 74 78 80 89 95 100 101 104 109 115 125 132 134 136 140 139 137 137 136 137 140 142 140 139 140 139 137 135 134
61 56 55 55 51 46 43 41 43 49 50 53 54 58 60 63 70 74 76 82 89 92 95 98 103 103 109 120 126 129 135 136 135 135 133 132 135 135 137 135 135 136 134 132
60 58 56 53 48 45 44 43 45 45 47 47 45 50 55 56 59 63 68 71 76 77 79 87 95 96 98 103 110 117 123 127 129 130 131 129 130 130 132 132 133 134 134 132
60 58 56 51 46 43 42 42 42 43 42 44 44 44 49 50 55 59 61 61 65 68 72 75 80 84 89 97 103 103 106 113 118 122 123 124 128 128 127 128 129 128 128 128
62 59 56 52 43 40 41 40 38 39 38 38 40 42 44 45 50 51 53 54 57 61 68 69 70 71 79 84 90 96 99 101 105 109 113 117 125 126 126 126 123 123 125 125
62 61 56 51 44 39 39 39 37 36 35 33 35 36 38 40 43 46 48 51 54 56 62 61 62 68 76 74 77 82 87 91 95 97 100 108 115 117 121 123 121 121 121 120
62 59 55 49 44 40 36 35 36 35 32 33 33 34 34 37 40 44 46 49 50 52 53 54 58 64 63 66 69 73 79 81 82 85 92 102 103 105 109 113 113 115 116 117
61 58 54 47 43 39 36 33 32 32 30 32 32 32 31 34 37 40 42 43 43 43 46 49 53 56 56 60 64 66 71 71 72 77 83 88 91 96 98 100 103 105 108 108
60 57 53 47 42 38 36 32 31 30 28 31 32 31 32 31 35 38 39 37 37 38 41 44 48 51 51 52 56 60 63 68 71 74 73 74 80 85 88 90 93 96 99 101
61 57 53 46 43 37 35 33 31 31 28 29 31 32 31 32 32 35 37 34 34 36 39 42 42 44 47 48 49 51 55 59 61 61 64 69 71 76 79 81 84 87 89 89
61 56 51 46 41 38 35 33 31 31 28 28 30 29 26 29 31 30 33 32 26 30 35 37 38 40 41 42 44 48 50 51 52 54 59 62 64 66 70 73 74 75 79 79
61 55 51 46 40 38 34 35 32 31 30 28 31 29 27 28 28 27 29 30 27 24 26 29 32 35 36 36 39 41 42 43 46 49 53 56 57 59 61 64 65 66 67 69
60 53 50 46 40 37 33 34 34 31 31 30 30 30 27 29 29 26 28 31 27 23 21 18 20 26 30 32 33 35 37 39 41 43 46 51 53 54 55 57 59 62 61 64
58 51 49 44 40 37 33 32 35 33 32 31 29 29 30 30 29 27 27 28 28 28 19 16 16 18 23 25 28 31 33 34 35 37 41 44 47 49 52 54 56 58 59 60
56 50 47 44 40 36 34 33 34 33 32 32 31 29 29 31 30 30 29 28 26 26 25 20 18 15 18 20 24 29 32 32 33 35 38 41 43 46 47 47 48 50 50 53
54 48 45 44 41 37 35 34 33 34 34 33 33 31 29 31 31 33 33 29 27 27 25 23 20 16 14 17 21 24 27 29 30 31 33 37 40 40 40 40 42 45 49 53
52 49 44 44 42 39 37 35 34 34 35 34 34 34 33 31 33 34 35 34 30 27 27 26 21 18 16 15 17 19 21 25 27 29 29 32 35 37 39 42 46 49 52 53
51 50 44 43 43 41 39 37 35 35 35 35 35 35 35 35 34 35 36 36 35 31 30 29 27 22 22 20 18 22 23 26 27 27 29 33 35 39 43 47 51 54 56 58